LogoCoinalyze
    Ad-Free Version 홈 마켓 펀딩비
    선물 데이터
    • 집계된 데이터 (코인들)
    • 개별 차트
    • 글로벌 차트
    알림
    TA
    Bitcoin Ethereum BNB Ripple Tron Dogecoin ZCash Monero UNUS SED LEO Chainlink Cardano Stellar Lumens Bitcoin Cash Litecoin Hedera Cronos Polkadot Ethereum Classic Algorand Quant Cosmos VeChain Dash Bitcoin SV BitTorrent Terra Decred Tezos Iota The Graph THETA Decentraland MultiversX NEO Chiliz Golem Basic Attention Token Horizen Qtum Beam 0x DigiByte RIF Token FTX Token Holo FUNToken Zilliqa Ontology aelf Nano Enjin Coin Ravencoin Verge Mask Network Siacoin Status WINk Waves IoTeX Power Ledger iExec RLC Steem Kyber Network Crystal Lisk Ark Ardor WOO Network IOST WAX Icon Storj Wanchain Loopring Bitcoin Diamond Augur AdEx Bitcoin Gold OmiseGO NEM MonaCoin BitShares Ren Komodo V Systems Nuls Mithril SOLVE EOS Maker Aion Nebulas HedgeTrade Bread Fetch.ai TomoChain Polygon Fantom Waltonchain GXChain Bytom Metaverse ETP MaidSafeCoin QASH
    정렬 검색:
    더보기
    • API
    • 캔들 유형
    • 블로그
    • 기부
    • 연락하기
    • 사이트맵
    • Privacy Policy
    • Disclaimer
    • Theme:
    한국어
    • English
    • Français
    • Русский
    • Deutsch
    • Türkçe
    • Nederlands
    • Português (BR)
    • Español
    • 简体中文
    • 日本語
     
    로그인 / 회원가입
    Markets/ Pepe/ PEPE 로 USDT/ PEPEUSDT Perp Gate.io
    Trades
    WL
    채팅
    통계
    뉴스
    ⦷
    AAA
    0.00000341900 10000000.00000000 20:32:13
    0.00000341800 10000000.00000000 20:32:11
    0.00000341900 10000000.00000000 20:32:09
    0.00000341900 0.00000000 20:32:07
    0.00000342000 130000000.00000000 20:32:07
    0.00000342000 150000000.00000000 20:32:07
    0.00000342000 80000000.00000000 20:32:07
    0.00000342000 10000000.00000000 20:32:07
    0.00000341900 0.00000000 20:32:05
    0.00000341900 10000000.00000000 20:32:05
    0.00000341700 30000000.00000000 20:32:04
    0.00000341500 260000000.00000000 20:32:03
    0.00000341500 140000000.00000000 20:32:03
    0.00000341400 480000000.00000000 20:32:03
    0.00000341400 650000000.00000000 20:32:03
    0.00000341400 220000000.00000000 20:32:03
    0.00000341300 20000000.00000000 20:32:03
    0.00000341200 10000000.00000000 20:32:03
    0.00000341300 10000000.00000000 20:32:01
    0.00000341200 10000000.00000000 20:31:59
    0.00000341200 10000000.00000000 20:31:57
    0.00000341300 10000000.00000000 20:31:55
    0.00000341200 0.00000000 20:31:54
    0.00000341300 10000000.00000000 20:31:54
    0.00000341300 10000000.00000000 20:31:51
    0.00000341400 10000000.00000000 20:31:49
    0.00000341300 10000000.00000000 20:31:47
    0.00000341200 10000000.00000000 20:31:45
    0.00000341200 0.00000000 20:31:44
    0.00000341100 10000000.00000000 20:31:43
    0.00000341100 10000000.00000000 20:31:41
    0.00000341200 10000000.00000000 20:31:39
    0.00000341200 10000000.00000000 20:31:35
    0.00000341100 10000000.00000000 20:31:31
    0.00000341200 10000000.00000000 20:31:29
    0.00000341100 10000000.00000000 20:31:27
    0.00000341100 10000000.00000000 20:31:25
    0.00000341200 10000000.00000000 20:31:21
    0.00000341100 10000000.00000000 20:31:19
    0.00000341000 10000000.00000000 20:31:17
    0.00000341000 10000000.00000000 20:31:15
    0.00000341200 10000000.00000000 20:31:13
    0.00000341300 10000000.00000000 20:31:11
    0.00000341200 50000000.00000000 20:31:08
    0.00000341200 150000000.00000000 20:31:08
    0.00000341200 0.00000000 20:31:08
    0.00000341200 20000000.00000000 20:31:08
    0.00000341300 10000000.00000000 20:31:07
    0.00000341400 10000000.00000000 20:31:05
    0.00000341400 10000000.00000000 20:31:03
    0.00000341400 10000000.00000000 20:31:01
    0.00000341500 10000000.00000000 20:30:59
    0.00000341500 10000000.00000000 20:30:57
    0.00000341400 10000000.00000000 20:30:55
    0.00000341500 10000000.00000000 20:30:49
    0.00000341500 10000000.00000000 20:30:47
    0.00000341500 10000000.00000000 20:30:43
    0.00000341400 70000000.00000000 20:30:41
    0.00000341400 0.00000000 20:30:41
    0.00000341400 60000000.00000000 20:30:41
    0.00000341400 0.00000000 20:30:41
    0.00000341500 150000000.00000000 20:30:41
    0.00000341500 90000000.00000000 20:30:41
    0.00000341500 0.00000000 20:30:41
    0.00000341500 0.00000000 20:30:41
    0.00000341500 10000000.00000000 20:30:41
    0.00000341600 10000000.00000000 20:30:39
    0.00000341500 10000000.00000000 20:30:37
    0.00000341500 10000000.00000000 20:30:33
    0.00000341400 10000000.00000000 20:30:31
    0.00000341500 10000000.00000000 20:30:31
    0.00000341400 10000000.00000000 20:30:27
    0.00000341500 1130000000.00000000 20:30:25
    0.00000341500 0.00000000 20:30:25
    0.00000341500 90000000.00000000 20:30:25
    0.00000341500 50000000.00000000 20:30:25
    0.00000341500 60000000.00000000 20:30:25
    0.00000341400 10000000.00000000 20:30:23
    0.00000341500 10000000.00000000 20:30:21
    0.00000341400 10000000.00000000 20:30:19
    0.00000341400 90000000.00000000 20:30:17
    0.00000341300 10000000.00000000 20:30:17
    0.00000341200 10000000.00000000 20:30:15
    0.00000341300 10000000.00000000 20:30:13
    0.00000341200 10000000.00000000 20:30:09
    0.00000341300 10000000.00000000 20:30:07
    0.00000341100 0.00000000 20:30:04
    0.00000341000 10000000.00000000 20:30:03
    0.00000341100 10000000.00000000 20:30:01
    0.00000341200 0.00000000 20:30:00
    0.00000341200 10000000.00000000 20:29:59
    0.00000341300 10000000.00000000 20:29:57
    0.00000341200 10000000.00000000 20:29:55
    0.00000341300 10000000.00000000 20:29:51
    0.00000341300 10000000.00000000 20:29:47
    0.00000341200 10000000.00000000 20:29:45
    0.00000341300 10000000.00000000 20:29:43
    0.00000341400 10000000.00000000 20:29:39
    0.00000341300 10000000.00000000 20:29:37
    0.00000341400 10000000.00000000 20:29:35
    로그아웃
    AAA
    고객 센터
    🙂 🤣 😎 🤗 😛 😉 😜 🤑 🤔 😑 😴 😕 🙃 😲 😇 🙁 😢 😬 😟 😠 🕺 🏃 💪 ✌ 👌 👍 👎 👏 👋 🤝 🍺 🍻 🐋 🐟 🦈 🗽 🚄 ✈ 🛑 🚀 🏦 🌚 ⭐ 🌞 ⚡ 🏆 💰 💲 🔨 ❓ ❗ 💯 🔶 🏁
    ☺
    로그인 또는 회원가입 및 채팅
    24시간
    변동
    -1.95%
    거래량
    2,612,100,000,000
    고가
    0.00000350400
    저가
    0.00000336600
    7일
    변동
    -10.45%
    거래량
    38,292,750,000,000
    고가
    0.00000401300
    저가
    0.00000335700
    30일
    변동
    +17.65%
    거래량
    162,034,780,000,000
    고가
    0.00000455800
    저가
    0.00000252900
    Pepe price rallies 25% as whale demand and futures interest surge
    Key takeaways Pepe has gained 25% this week, including a combined 22% advance over the previous two days. Seven whale transactions worth more than $1 million each occurred Thursday, the highest...
    coinjournal.net
    Aug 21, 2026 08:41
    PEPE Supply on Exchanges Just Took a Massive Hit – What’s Next?
    A drop in PEPE exchange balances has added to bullish expectations despite muted trader interest.
    cryptopotato.com
    Aug 6, 2026 20:02
    PEPE Exchange Outflows Hit Nearly 2-Year High as Whales Accumulate
    Pepe (PEPE) recorded its largest single-day exchange outflow since November 2024, with 4.54 trillion tokens leaving trading platforms, signaling that holders are moving supply away from immediate...
    beincrypto.com
    Aug 6, 2026 04:57
    Meme Coin Based on White House Shooter Conspiracy Rallies 320%
    $HENRY surged 300% after a 2023 Pepe tweet appeared to name the White House shooter, fueling a viral time-travel meme. The post Meme Coin Based on White House Shooter Conspiracy Rallies 320%...
    beincrypto.com
    Apr 27, 2026 16:11
    PEPE surges 4% as market sentiment improves, eyes Key resistance breakout
    Key takeaways Pepe extends gains on Wednesday, stretching its rally from the 50-day EMA. Derivatives data show heightened retail activity as risk-on sentiment returns to the market. Pepe (PEPE) is...
    coinjournal.net
    Apr 22, 2026 11:44
    Why The PEPE Price Could Stage A 55X Rally To Reach New $0.0001 ATH
    The PEPE price has now started to edge back into bullish conversations after the recent inflows into the crypto market. The last time PEPE’s weekly chart printed the kind of structure now...
    newsbtc.com
    Apr 21, 2026 15:30
    Pepe (PEPE) surges 9%, drawing interest from whales
    Key takeaways PEPE is up 9% in the last 24 hours, making it one of the best performers among the top 50 cryptocurrencies by market cap. The rally comes amid renewed interest from whales and retail...
    coinjournal.net
    Apr 16, 2026 07:40
    Murad Says SPX6900 (SPX) Is Primed for a Rally — Is He Right This Time?
    Crypto influencer Murad Mahmudov claims SPX6900 (SPX) is stabilizing at the same market cap level where Dogecoin (DOGE) and Pepe (PEPE) consolidated before their explosive rallies. The...
    beincrypto.com
    Apr 5, 2026 21:36
    The Shiba Inu Of This Cycle: Analyst Shares Why It Is Better To Buy PEPE Now
    In the bull market cycle of 2021-2022, the Shiba Inu meme coin made waves in a way that changed the face of meme coins forever. This came after Dogecoin’s initial 36,000% rally, and Shiba Inu...
    newsbtc.com
    Apr 4, 2026 07:30
    PEPE Explodes by 18% Amid Altcoin Rally, BTC Tapped $74K: Market Watch
    The frog-themed meme coin is today's biggest gainer, followed by TAO, DOT, and BONK.
    cryptopotato.com
    Mar 16, 2026 10:56
    Should PEPE traders brace for volatility as short squeeze potential builds?
    The memecoin market has seen its collective market capitalization drop by 48% over the past year, and 6.9% over the past month, according to CoinMarketCap. According to Glassnode, the memecoin...
    ambcrypto.com
    Mar 7, 2026 18:00
    간단히 명령어를 채팅방에 입력하세요. Nick1을 실제 사용할 닉네임으로 바꾸세요
    • /ignore nick1 채팅 사용자를 차단합니다
    • /unignore nick1 채팅 사용자를 차단 해제합니다
    • /ignorelist 차단된 채팅 사용자 보기